[Date Prev][Date Next][Thread Prev][Thread Next] - [Date Index][Thread Index][Author Index]
2 Line ISS Keps 11-29
- Subject: [sarex] 2 Line ISS Keps 11-29
- From: "Dave Larsen PhD" <doc@xxxxxxxxxxx>
- Date: Mon, 29 Nov 2004 02:19:54 -0800
ISS
1 25544U 98067A 04334.16907814 .00031002 00000-0 24781-3 0 2477
2 25544 51.6393 203.7506 0004415 57.1745 83.7622 15.70804582344239
----
Via the sarex mailing list at AMSAT.ORG courtesy of AMSAT-NA.
To unsubscribe, send "unsubscribe sarex" to Majordomo@amsat.org
AMSAT Home